Voltar ao catálogo

COSMOS 381

AtivoMilitarLEO
NORAD 4783·PAYLOAD·🇷🇺 Russia

Lançado Dec 2, 1970 de Plesetsk Cosmodrome

Loading…

Próximas Passagens

TLE

Source: Space-Track
1  4783U 70102A   26221.58960337  .00000017  00000-0  41187-4 0  9999
2  4783  74.0323 282.7989 0031589 290.2396  69.5328 13.75050088793497

Acompanhe COSMOS 381 em tempo real com AllMySat

Download on the App Store